Regional Weather Roundup
Issued by NWS Mt. Holly, NJ

Home | Current Version | Previous Version | Text Only | Print | Product List | Glossary On
Versions: 1 2 3 4 5 6 7 8 9 10 11 12 13 14 15 16 17 18 19 20 21 22 23 24 25 26 27 28 29 30 31 32 33 34 35 36 37 38 39 40 41 42 43 44 45 46 47 48 49 50
000
ASUS41 KPHI 300412
RWRPHI

REGIONAL WEATHER ROUNDUP
NATIONAL WEATHER SERVICE MOUNT HOLLY NJ
1200 AM EDT TUE JUN 30 2015

NOTE:  "FAIR" INDICATES FEW OR NO CLOUDS BELOW 12,000 FEET WITH NO
SIGNIFICANT WEATHER AND/OR OBSTRUCTIONS TO VISIBILITY.

 * = STATION DOES NOT REPORT PRECIPITATION (E.G. RAIN, SNOW, ETC.)
        OR FOG.

NJZ015>026-300500-
SOUTHERN NEW JERSEY

CITY           SKY/WX    TMP DP  RH WIND       PRES   REMARKS
POMONA         CLEAR     68  62  81 S3        29.97F
RIO GRANDE*    CLEAR     66  59  77 CALM      29.98F
MILLVILLE      CLEAR     64  61  90 CALM      29.96F
WRIGHTSTOWN    CLEAR     65  60  84 SW6       29.94F
MOUNT HOLLY    CLEAR     66  60  81 CALM      29.95F
TRENTON        CLEAR     68  57  68 SW3       29.95S

$$
NJZ001>014-300500-
NORTHERN NEW JERSEY

CITY           SKY/WX    TMP DP  RH WIND       PRES   REMARKS
SUSSEX         CLOUDY    64  61  90 CALM      29.95S
ANDOVER*         N/A     61  59  93 CALM      29.96S
MORRISTOWN     CLEAR     61  57  88 CALM      29.95S
NEWARK         PTCLDY    71  59  65 S9        29.95R
TETERBORO      CLEAR     69  57  65 S3        29.93S
CALDWELL       CLEAR     64  58  80 CALM      29.95S
SOMERVILLE     CLEAR     62  58  86 CALM      29.94S
ALLAIRE*       CLEAR     66  55  68 S5        29.97S
TOMS RIVER*    CLEAR     63  61  94 CALM      29.98R

$$
PAZ043-044-047-054-055-060>062-066>071-300500-
EASTERN PENNSYLVANIA

CITY           SKY/WX    TMP DP  RH WIND       PRES   REMARKS
PHILADELPHIA   CLEAR     73  59  61 S7        29.95F
NORTH PHILA    CLEAR     71  56  58 S3        29.97S
BLUE BELL      CLEAR     63  61  94 CALM      29.95S
DOYLESTOWN     CLEAR     64  57  78 CALM      29.95F
QUAKERTOWN*    CLEAR     63  59  88 CALM      29.97S
POTTSTOWN      CLEAR     64  59  83 CALM      29.97S
LANCASTER      CLEAR     63  59  87 E5        29.94F
COATESVILLE    PTCLDY    66  59  77 CALM      29.97S
READING        CLEAR     69  57  65 S3        29.94S
ALLENTOWN      CLEAR     67  58  72 CALM      29.95S
MOUNT POCONO   CLOUDY    62  57  83 NW3       30.00R
HAZLETON       MOCLDY    63  59  88 CALM      30.02S
WILKES BARRE   LGT RAIN  67  60  78 CALM      29.96R

$$
DEZALL-MDZ008-012-015-019-020-300500-
DELAWARE AND EASTERN MARYLAND

CITY           SKY/WX    TMP DP  RH WIND       PRES   REMARKS
WILMINGTON     CLEAR     70  57  63 SW8       29.95F
DOVER          CLEAR     68  60  77 S5        29.94S
GEORGETOWN     CLEAR     67  60  78 S6        29.98S
EASTON         CLEAR     70  62  76 S6        30.00S
PATUXENT       CLEAR     73  64  73 S8        29.95S
OCEAN CITY     CLEAR     72  66  81 S3        29.98F
WALLOPS ISLAND CLEAR     72  67  84 S8        29.98F
CAMBRIDGE      CLEAR     68  61  77 SE3       29.96S
SALISBURY      CLEAR     67  62  84 SE3       29.97F

$$
PAZ001-021-NYZ056-072-MDZ011-DCZ001-300500-
OTHER NEARBY LOCATIONS

CITY           SKY/WX    TMP DP  RH WIND       PRES   REMARKS
HARRISBURG     MOCLDY    69  61  75 S5        29.93R
STATE COLLEGE  CLOUDY    63  58  84 NE3       29.95S
WILLIAMSPORT   CLOUDY    64  61  90 CALM      29.93F
BINGHAMTON     CLOUDY    63  55  75 CALM      29.97R
NEW YORK CITY  CLEAR     72  55  55 SW3       29.97S
BALTIMORE      PTCLDY    69  61  75 CALM      29.94F
WASHINGTON DC  CLEAR     73  62  68 S5        29.95S

$$



USA.gov is the U.S. government's official web portal to all federal, state and local government web resources and services.